Flag for Germany Weather past 2 weeks in Gaggenau, Baden-Württemberg, Germany

Now
48 °F

Fog.


Feels Like: 48 °F
Forecast: 43 / 61 °F
Wind: 2 mph from North

Location: Karlsruhe - Baden Wurttemberg

Current Time: Oct 25, 2014 at 7:43:08 AM

Latest Report: Oct 25, 2014 at 7:20 AM


Visibility: 5 mi

Pressure: 30.09 "Hg

Humidity: 87%

Dew point: 45 °F

Location of GaggenauLocation

Historic Weather in Gaggenau — Graph

°F

Gaggenau temperature yesterday

Maximum temperature yesterday: 57 °F (at 3:50 PM)
Minimum temperature yesterday: 36 °F (at 6:20 AM)
Average temperature yesterday: 46 °F

Past Weeks' High & Low Weather Summary

 TemperatureHumidityPressure
High75 °F (Oct 19, 2:50 PM)100% (Oct 12, 5:50 AM)30.30 "Hg (Oct 12, 5:50 AM)
Low36 °F (Oct 24, 6:20 AM)50% (Oct 19, 3:50 PM)29.65 "Hg (Oct 21, 5:20 PM)
Average57 °F82%29.99 "Hg
* Reported Oct 10 6:20 AM — Oct 25 6:50 AM, Gaggenau, Weather by CustomWeather, © 2014

Note: Actual official high and low records may vary slightly from our data, if they occured in-between our weather recording intervals... More about our weather records

Advertising

Gaggenau weather history for previous 24 hours

 ConditionsComfort  
Time TempWeatherWind HumidityBarometerVisibility
6:50 AM
Oct 25
48 °FPassing clouds.3 mph87%30.09 "HgN/A
6:20 AM48 °FPartly cloudy.2 mph94%30.09 "HgN/A
5:50 AM48 °FPartly cloudy.2 mph94%30.09 "HgN/A
5:20 AM48 °FSprinkles. Partly cloudy.1 mph94%30.09 "HgN/A
4:50 AM48 °FSprinkles. Partly cloudy.1 mph87%30.09 "HgN/A
11:20 PM
Oct 24
46 °FClear.No wind93%30.12 "Hg10 mi
10:50 PM48 °FClear.2 mph87%30.12 "Hg10 mi
10:20 PM48 °FClear.No wind87%30.12 "Hg10 mi
9:50 PM48 °FClear.No wind87%30.12 "Hg10 mi
9:20 PM48 °FClear.1 mph87%30.12 "Hg10 mi
8:50 PM46 °FClear.5 mph87%30.12 "Hg10 mi
8:20 PM48 °FClear.No wind87%30.09 "Hg10 mi
7:50 PM50 °FClear.1 mph76%30.09 "Hg10 mi
7:20 PM50 °FSunny.2 mph76%30.09 "Hg10 mi
6:50 PM50 °FSunny.2 mph76%30.09 "Hg10 mi
6:20 PM52 °FSunny.5 mph77%30.09 "Hg10 mi
5:50 PM54 °FSunny.6 mph72%30.12 "Hg10 mi
5:20 PM55 °FPassing clouds.5 mph67%30.12 "HgN/A
4:50 PM54 °FSunny.5 mph72%30.12 "Hg10 mi
4:20 PM55 °FSunny.2 mph67%30.12 "Hg10 mi
3:50 PM57 °FSunny.1 mph63%30.12 "Hg10 mi
3:20 PM55 °FSunny.2 mph67%30.12 "Hg10 mi
2:50 PM55 °FSunny.1 mph72%30.15 "Hg10 mi
2:20 PM52 °FSunny.2 mph77%30.15 "Hg10 mi
1:50 PM50 °FSunny.3 mph88%30.18 "Hg10 mi
1:20 PM48 °FPassing clouds.2 mph94%30.18 "Hg6 mi
12:50 PM46 °FSnow. Scattered clouds.2 mph93%30.18 "Hg6 mi
12:20 PM45 °FFog.2 mph93%30.21 "Hg2 mi
11:50 AM43 °FFog.2 mph100%30.21 "Hg1 mi
11:20 AM43 °FFog.3 mph93%30.21 "Hg1 mi
10:50 AM41 °FFog.2 mph100%30.21 "Hg1 mi
10:20 AM41 °FFog.3 mph100%30.21 "Hg0 mi
9:50 AM41 °FFog.2 mph100%30.21 "Hg1 mi
9:20 AM37 °FFog.2 mph100%30.21 "Hg1 mi
8:50 AM39 °FFog.2 mph93%30.21 "Hg0 mi
8:20 AM39 °FFog.2 mph93%30.21 "Hg0 mi
7:50 AM39 °FFog.1 mph93%30.21 "Hg0 mi
7:20 AM37 °FFog.5 mph100%30.21 "Hg0 mi
Weather by CustomWeather, © 2014

See weather overviewHow to use our weather pages